FW2527 Weather Reports


time (UTC)temp
F
wind
direction
speed
knots
gust
knots
rain 1hr
in
rain 24hr
in
rain mn
in
humidity
%
barometer
mb
20260507041056 42 0.0 0.0 0.00 0.07 0.00 91 1013.6
20260507040544 42 0.0 0.0 0.00 0.07 0.00 91 1013.6
20260507040003 42 0.0 0.0 0.00 0.15 0.00 91 1013.6
20260507035553 42 0.0 0.0 0.00 0.15 0.00 90 1013.5
20260507035041 42 0.0 0.0 0.00 0.15 0.00 90 1013.2
20260507034501 42 0.0 0.0 0.00 0.15 0.00 90 1013.1
20260507034051 42 0.0 0.0 0.00 0.15 0.00 90 1013.1
20260507033544 42 0.0 0.0 0.00 0.15 0.00 91 1013.3
20260507033010 42 0.0 0.0 0.00 0.15 0.00 91 1013.3
20260507032559 42 0.0 0.0 0.00 0.15 0.00 90 1013.4
20260507032047 42 0.0 0.0 0.00 0.15 0.00 90 1013.3
20260507031506 42 0.0 0.0 0.00 0.15 0.00 90 1013.4
20260507031100 42 0.0 0.0 0.00 0.15 0.00 90 1013.4
20260507030545 42 0.0 0.0 0.00 0.15 0.00 90 1013.3
20260507030014 42 0.0 0.0 0.00 0.19 0.00 90 1013.3
20260507025502 43 0.0 0.0 0.00 0.19 0.00 90 1013.4
20260507025048 43 0.0 0.0 0.00 0.19 0.00 90 1013.4
20260507024507 43 0.0 0.0 0.00 0.19 0.00 90 1013.4
20260507024102 43 0.0 0.0 0.00 0.19 0.00 90 1013.5
20260507023549 43 0.0 0.0 0.00 0.19 0.00 90 1013.4
20260507023005 43 0.0 0.0 0.00 0.19 0.00 90 1013.4
20260507022555 43 0.0 0.0 0.00 0.19 0.00 90 1013.3
20260507022044 43 0.0 0.0 0.00 0.19 0.00 90 1013.3
20260507021511 43 0.0 0.0 0.00 0.19 0.00 90 1013.2
20260507021104 43 0.0 0.0 0.00 0.19 0.00 89 1013.4
20260507020550 43 0.0 0.0 0.00 0.19 0.00 89 1013.3
20260507020009 43 0.0 0.0 0.00 0.22 0.00 89 1013.2
20260507015601 44 0.0 0.0 0.00 0.22 0.00 89 1013.2
20260507015050 44 0.0 0.0 0.00 0.22 0.00 89 1013.1
20260507014506 44 0.0 0.0 0.00 0.22 0.00 89 1013.3
20260507014057 44 0.0 0.0 0.00 0.22 0.00 89 1013.2
20260507013543 44 0.0 0.0 0.00 0.22 0.00 89 1013.2
20260507013002 44 0.0 0.0 0.00 0.22 0.00 89 1013.2
20260507012554 44 0.0 0.0 0.00 0.22 0.00 89 1013.2
20260507012040 44 0.0 0.0 0.00 0.22 0.00 88 1013.1
20260507011509 45 0.0 0.0 0.00 0.22 0.00 88 1013.0
20260507011100 45 0.0 0.0 0.00 0.22 0.00 88 1013.0
20260507010550 45 0.0 0.0 0.00 0.22 0.00 88 1013.0
20260507010008 45 0.0 0.0 0.00 0.23 0.00 88 1012.9
20260507005557 45 0.0 0.0 0.00 0.23 0.00 88 1012.9
20260507005044 45 0.0 0.0 0.00 0.23 0.00 88 1012.8
20260507004513 45 0.0 0.0 0.00 0.23 0.00 87 1012.8
20260507004002 45 0.0 0.0 0.00 0.23 0.00 87 1012.8
20260507003552 46 0.0 0.0 0.00 0.23 0.00 87 1012.9
20260507003010 46 0.0 0.0 0.00 0.23 0.00 87 1012.7
20260507002601 46 0.0 0.0 0.00 0.23 0.00 87 1012.6
20260507002050 46 0.0 0.0 0.00 0.23 0.00 87 1012.6
20260507001513 46 0.0 0.0 0.00 0.23 0.00 87 1012.6
20260507001103 47 0.0 0.0 0.00 0.23 0.00 87 1012.6
20260507000547 47 0.0 0.0 0.00 0.23 0.00 87 1012.5
20260507000006 47 0.0 0.0 0.00 0.24 0.00 87 1012.4
20260506235556 47 0.0 0.0 0.00 0.24 0.00 87 1012.4
20260506235043 47 0.0 0.0 0.00 0.24 0.00 87 1012.5
20260506234504 47 0.0 0.0 0.00 0.24 0.00 87 1012.5
20260506234055 47 0.0 0.0 0.00 0.24 0.00 87 1012.5
20260506233542 47 0.0 0.0 0.00 0.24 0.00 87 1012.5
20260506233001 47 0.0 0.0 0.00 0.24 0.00 88 1012.4
20260506232551 47 0.0 0.0 0.00 0.24 0.00 88 1012.3
20260506232040 47 0.0 0.0 0.00 0.24 0.00 88 1012.4
20260506231601 47 0.0 0.0 0.00 0.24 0.00 88 1012.4
20260506231052 47 0.0 0.0 0.00 0.24 0.00 88 1012.4
20260506230539 47 0.0 0.0 0.00 0.24 0.00 87 1012.4
20260506230005 47 0.0 0.0 0.00 0.24 0.00 87 1012.3
20260506225555 47 0.0 0.0 0.00 0.24 0.00 87 1012.3
20260506225044 47 0.0 0.0 0.00 0.24 0.00 87 1012.3
20260506224503 48 0.0 0.0 0.00 0.24 0.00 87 1012.2
20260506224055 48 0.0 0.0 0.00 0.24 0.00 87 1012.3
20260506223542 48 0.0 0.0 0.00 0.24 0.00 87 1012.3
20260506223010 48 0.0 0.0 0.00 0.24 0.00 87 1012.2
20260506222601 48 0.0 0.0 0.00 0.24 0.00 87 1012.3
20260506222048 48 0.0 0.0 0.00 0.24 0.00 86 1012.3
20260506221508 48 0.0 0.0 0.00 0.24 0.00 86 1012.2
20260506221101 48 0.0 0.0 0.00 0.24 0.00 86 1012.2
20260506220546 48 0.0 0.0 0.00 0.24 0.00 86 1012.3
20260506220006 48 0.0 0.0 0.00 0.24 0.24 86 1012.3
20260506215558 48 0.0 0.0 0.00 0.24 0.24 86 1012.2
20260506215044 48 0.0 0.0 0.00 0.24 0.24 86 1012.2
20260506214503 48 0.0 0.0 0.00 0.24 0.24 86 1012.2
20260506214054 48 0.0 0.0 0.00 0.24 0.24 86 1012.2
20260506213541 48 0.0 0.0 0.00 0.24 0.24 86 1012.2
20260506213004 48 0.0 0.0 0.00 0.24 0.24 86 1012.1
20260506212555 48 0.0 0.0 0.00 0.24 0.24 87 1012.1
20260506212044 48 0.0 0.0 0.00 0.24 0.24 87 1012.0
20260506211602 48 0.0 0.0 0.00 0.24 0.24 87 1012.1
20260506211050 48 0.0 0.0 0.00 0.24 0.24 87 1012.0
20260506210542 48 0.0 0.0 0.00 0.24 0.24 88 1012.1
20260506205548 48 0.0 0.0 0.00 0.24 0.24 88 1012.0
20260506205038 48 0.0 0.0 0.00 0.24 0.24 88 1011.9
20260506204506 48 0.0 0.0 0.00 0.24 0.24 88 1012.0
20260506204057 48 0.0 0.0 0.00 0.24 0.24 88 1012.0
20260506203544 48 0.0 0.0 0.00 0.24 0.24 88 1011.8
20260506203003 48 0.0 0.0 0.00 0.24 0.24 88 1011.9
20260506202552 48 0.0 0.0 0.00 0.24 0.24 88 1011.7
20260506202040 48 0.0 0.0 0.00 0.24 0.24 88 1011.5
20260506201630 48 0.0 0.0 0.00 0.24 0.24 87 1011.7
20260506201049 48 0.0 0.0 0.00 0.24 0.24 87 1011.7
20260506200539 49 0.0 0.0 0.00 0.24 0.24 87 1011.6
20260506200101 49 0.0 0.0 0.00 0.24 0.24 87 1011.5
20260506195549 49 0.0 0.0 0.00 0.24 0.24 87 1011.5
20260506195041 49 0.0 0.0 0.00 0.24 0.24 87 1011.4
20260506194505 49 0.0 0.0 0.00 0.24 0.24 86 1011.3
20260506194056 49 0.0 0.0 0.00 0.24 0.24 86 1011.3
20260506193542 49 0.0 0.0 0.00 0.24 0.24 86 1011.1
20260506193013 49 0.0 0.0 0.00 0.24 0.24 86 1011.0
20260506192601 49 0.0 0.0 0.00 0.24 0.24 85 1011.1
20260506192049 49 0.0 0.0 0.00 0.24 0.24 85 1010.9
20260506191510 49 0.0 0.0 0.00 0.24 0.24 85 1010.9
20260506191059 49 0.0 0.0 0.00 0.24 0.24 85 1010.9
20260506190547 49 0.0 0.0 0.00 0.24 0.24 85 1010.8
20260506190003 49 0.0 0.0 0.00 0.24 0.24 85 1010.7
20260506185553 49 0.0 0.0 0.00 0.24 0.24 85 1010.7
20260506185041 49 0.0 0.0 0.00 0.24 0.24 84 1010.6
20260506184606 49 0.0 0.0 0.00 0.24 0.24 84 1010.6
20260506184051 50 0.0 0.0 0.00 0.24 0.24 84 1010.6
20260506183542 50 0.0 0.0 0.00 0.24 0.24 83 1010.6
20260506183006 50 0.0 0.0 0.00 0.24 0.24 83 1010.4
20260506182556 50 0.0 0.0 0.00 0.24 0.24 83 1010.5
20260506182044 50 0.0 0.0 0.00 0.24 0.24 83 1010.6
20260506181505 50 0.0 0.0 0.00 0.24 0.24 83 1010.5
20260506181056 50 0.0 0.0 0.00 0.24 0.24 83 1010.4
20260506180544 50 0.0 0.0 0.00 0.24 0.24 83 1010.3
20260506180003 50 0.0 0.0 0.00 0.24 0.24 82 1010.1
20260506175553 50 0.0 0.0 0.00 0.24 0.24 83 1010.1
20260506175041 50 0.0 0.0 0.00 0.24 0.24 83 1010.0
20260506174509 50 0.0 0.0 0.00 0.24 0.24 83 1009.9
20260506174100 50 0.0 0.0 0.00 0.24 0.24 82 1009.9
20260506173549 50 0.0 0.0 0.00 0.24 0.24 83 1009.8
20260506173007 50 0.0 0.0 0.00 0.24 0.24 83 1009.8
20260506172557 50 0.0 0.0 0.00 0.24 0.24 83 1009.7
20260506172046 50 0.0 0.0 0.00 0.24 0.24 84 1009.7
20260506171516 50 0.0 0.0 0.00 0.24 0.24 84 1009.6
20260506171002 50 0.0 0.0 0.00 0.24 0.24 84 1009.6
20260506170553 50 0.0 0.0 0.00 0.24 0.24 85 1009.6
20260506170013 50 0.0 0.0 0.00 0.24 0.24 85 1009.4
20260506165602 50 0.0 0.0 0.00 0.24 0.24 85 1009.6
20260506165050 50 0.0 0.0 0.00 0.24 0.24 85 1009.6
20260506164519 50 0.0 0.0 0.00 0.24 0.24 85 1009.4
20260506164014 50 0.0 0.0 0.00 0.24 0.24 85 1009.5
20260506163558 50 0.0 0.0 0.00 0.24 0.24 85 1009.4
20260506163030 50 0.0 0.0 0.00 0.24 0.24 85 1009.4
20260506162506 50 0.0 0.0 0.00 0.24 0.24 85 1009.4
20260506162056 49 0.0 0.0 0.00 0.24 0.24 85 1009.3
20260506161523 49 0.0 0.0 0.00 0.24 0.24 86 1009.4
20260506161011 49 0.0 0.0 0.00 0.24 0.24 87 1009.4
20260506160601 49 0.0 0.0 0.00 0.24 0.24 87 1009.4
20260506160019 49 0.0 0.0 0.00 0.24 0.24 87 1009.3
20260506155506 49 0.0 0.0 0.00 0.24 0.24 88 1009.3
20260506155057 49 0.0 0.0 0.00 0.24 0.24 88 1009.4
20260506154536 49 0.0 0.0 0.00 0.24 0.24 89 1009.3
20260506154019 49 0.0 0.0 0.00 0.24 0.24 89 1009.3
20260506153503 49 0.0 0.0 0.00 0.24 0.24 89 1009.3
20260506153023 49 0.0 0.0 0.00 0.24 0.24 89 1009.2
20260506152512 49 0.0 0.0 0.00 0.24 0.24 89 1009.3
20260506152107 49 0.0 0.0 0.00 0.24 0.24 89 1009.3
20260506151521 49 0.0 0.0 0.00 0.24 0.24 89 1009.2
20260506151010 49 0.0 0.0 0.00 0.24 0.24 89 1009.4
20260506150604 49 0.0 0.0 0.00 0.24 0.24 89 1009.2
20260506150032 49 0.0 0.0 0.00 0.24 0.24 89 1009.2
20260506145518 49 0.0 0.0 0.00 0.24 0.24 89 1009.1
20260506145005 49 0.0 0.0 0.00 0.24 0.24 89 1009.1
20260506144527 49 0.0 0.0 0.00 0.24 0.24 89 1009.1
20260506144015 49 0.0 0.0 0.00 0.24 0.24 90 1009.1
20260506143503 49 0.0 0.0 0.00 0.24 0.24 90 1009.0
20260506143035 49 0.0 0.0 0.00 0.24 0.24 90 1009.0
20260506142522 49 0.0 0.0 0.00 0.24 0.24 90 1009.1
20260506142011 49 0.0 0.0 0.00 0.24 0.24 90 1009.0
20260506141100 49 0.0 0.0 0.00 0.24 0.24 91 1009.1
20260506140547 49 0.0 0.0 0.00 0.24 0.24 91 1009.0
20260506140007 49 0.0 0.0 0.00 0.24 0.24 91 1009.1
20260506135556 48 0.0 0.0 0.00 0.24 0.24 91 1009.0
20260506135044 48 0.0 0.0 0.00 0.24 0.24 91 1009.1
20260506134514 48 0.0 0.0 0.01 0.24 0.24 91 1008.9
20260506134002 48 0.0 0.0 0.01 0.24 0.24 91 1009.0
20260506133552 48 0.0 0.0 0.01 0.24 0.24 91 1009.0
20260506133011 48 0.0 0.0 0.01 0.24 0.24 91 1009.0
20260506132601 48 0.0 0.0 0.01 0.24 0.24 92 1008.8
20260506132051 48 0.0 0.0 0.01 0.24 0.24 92 1008.8
20260506131513 48 0.0 0.0 0.01 0.24 0.24 92 1008.7
20260506131100 48 0.0 0.0 0.01 0.24 0.24 92 1008.6
20260506130548 48 0.0 0.0 0.01 0.24 0.24 92 1008.6
20260506130007 48 0.0 0.0 0.02 0.24 0.24 92 1008.7
20260506125556 48 0.0 0.0 0.02 0.24 0.24 92 1008.7
20260506125045 48 0.0 0.0 0.02 0.24 0.24 92 1008.5
20260506124505 48 0.0 0.0 0.01 0.23 0.23 92 1008.6
20260506124055 48 0.0 0.0 0.01 0.23 0.23 92 1008.6
20260506123546 48 0.0 0.0 0.01 0.23 0.23 92 1008.6
20260506123004 48 0.0 0.0 0.01 0.23 0.23 92 1008.6
20260506122554 48 0.0 0.0 0.01 0.23 0.23 92 1008.4
20260506122042 48 0.0 0.0 0.01 0.23 0.23 92 1008.3
20260506121501 48 0.0 0.0 0.01 0.23 0.23 92 1008.2
20260506121052 48 0.0 0.0 0.01 0.23 0.23 92 1008.2
20260506120540 48 0.0 0.0 0.01 0.23 0.23 93 1008.2
20260506120008 48 0.0 0.0 0.00 0.22 0.22 93 1008.1
20260506115600 48 0.0 0.0 0.00 0.22 0.22 92 1008.2
20260506115046 48 0.0 0.0 0.00 0.22 0.22 93 1008.0
20260506114508 48 0.0 0.0 0.00 0.22 0.22 92 1008.0
20260506114057 48 0.0 0.0 0.00 0.22 0.22 93 1008.1
20260506113545 48 0.0 0.0 0.00 0.22 0.22 93 1008.1
20260506113017 48 0.0 0.0 0.01 0.22 0.22 92 1008.1
20260506112503 48 0.0 0.0 0.01 0.22 0.22 93 1008.1
20260506112052 48 0.0 0.0 0.01 0.22 0.22 93 1008.1
20260506111512 48 0.0 0.0 0.01 0.22 0.22 93 1008.1
20260506111102 48 0.0 0.0 0.01 0.22 0.22 93 1008.0
20260506110549 48 0.0 0.0 0.01 0.22 0.22 93 1007.9
20260506110009 48 0.0 0.0 0.01 0.22 0.22 93 1008.0
20260506105603 48 0.0 0.0 0.01 0.22 0.22 93 1007.9
20260506105047 48 0.0 0.0 0.01 0.22 0.22 93 1008.0
20260506104505 47 0.0 0.0 0.01 0.22 0.22 93 1007.9
20260506104056 48 0.0 0.0 0.01 0.22 0.22 93 1007.9
20260506103547 48 0.0 0.0 0.02 0.22 0.22 93 1007.8
20260506103059 48 0.0 0.0 0.01 0.21 0.21 93 1007.8
20260506102547 48 0.0 0.0 0.01 0.21 0.21 93 1007.7
20260506102038 48 0.0 0.0 0.01 0.21 0.21 93 1007.8
20260506101558 48 0.0 0.0 0.01 0.21 0.21 93 1007.7
20260506101047 48 0.0 0.0 0.01 0.21 0.21 93 1007.6
20260506100537 48 0.0 0.0 0.01 0.21 0.21 93 1007.4
20260506100041 48 0.0 0.0 0.01 0.21 0.21 93 1007.5
20260506095503 48 0.0 0.0 0.01 0.21 0.21 93 1007.5
20260506095054 48 0.0 0.0 0.01 0.21 0.21 93 1007.4
20260506094513 48 0.0 0.0 0.01 0.21 0.21 93 1007.3
20260506094001 48 0.0 0.0 0.02 0.21 0.21 93 1007.3
20260506093551 48 0.0 0.0 0.01 0.20 0.20 93 1007.3
20260506093013 48 0.0 0.0 0.01 0.20 0.20 93 1007.2
20260506092601 47 0.0 0.0 0.01 0.20 0.20 93 1007.2
20260506092049 47 0.0 0.0 0.01 0.20 0.20 93 1007.2
20260506091510 47 0.0 0.0 0.01 0.20 0.20 93 1007.2
20260506091101 47 0.0 0.0 0.01 0.20 0.20 93 1007.1
20260506090550 47 0.0 0.0 0.01 0.20 0.20 93 1007.0
20260506090019 47 0.0 0.0 0.01 0.20 0.20 94 1007.1
20260506085507 47 0.0 0.0 0.02 0.20 0.20 94 1007.2
20260506085057 47 0.0 0.0 0.02 0.20 0.20 93 1007.1
20260506084517 47 0.0 0.0 0.02 0.20 0.20 94 1007.1
20260506084005 47 0.0 0.0 0.01 0.20 0.20 94 1007.2
20260506083555 47 0.0 0.0 0.01 0.20 0.20 94 1007.1
20260506083014 47 0.0 0.0 0.01 0.20 0.20 94 1007.0
20260506082506 47 0.0 0.0 0.01 0.20 0.20 94 1007.1
20260506082052 47 0.0 0.0 0.01 0.20 0.20 94 1007.2
20260506081511 47 0.0 0.0 0.01 0.20 0.20 94 1007.2
20260506081001 47 0.0 0.0 0.01 0.20 0.20 94 1007.1
20260506080551 47 0.0 0.0 0.01 0.20 0.20 94 1007.1
20260506073013 47 0.0 0.0 0.00 0.37 0.19 94 1007.0
20260506072501 47 0.0 0.0 0.00 0.37 0.19 93 1006.9
20260506072054 47 0.0 0.0 0.00 0.37 0.19 94 1007.0
20260506071510 48 0.0 0.0 0.01 0.37 0.19 94 1006.9
20260506071101 48 0.0 0.0 0.01 0.37 0.19 94 1006.8
20260506070549 48 0.0 0.0 0.01 0.37 0.19 94 1006.8
20260506062041 48 0.0 0.0 0.02 0.38 0.19 94 1006.8
20260506061501 48 0.0 0.0 0.01 0.37 0.18 94 1006.8
20260506061051 47 0.0 0.0 0.01 0.37 0.18 94 1006.8
20260506060539 47 0.0 0.0 0.01 0.37 0.18 94 1006.7
20260506051051 47 0.0 0.0 0.01 0.36 0.17 94 1006.5
20260506050539 47 0.0 0.0 0.01 0.36 0.17 93 1006.5
20260506050104 47 0.0 0.0 0.01 0.36 0.17 94 1006.5
20260506045040 47 0.0 0.0 0.02 0.37 0.17 93 1006.5
20260506044506 47 0.0 0.0 0.02 0.37 0.17 93 1006.6
20260506044056 47 0.0 0.0 0.02 0.37 0.17 93 1006.6
20260506043544 47 0.0 0.0 0.06 0.37 0.17 93 1006.5
20260506043005 47 0.0 0.0 0.07 0.37 0.17 93 1006.6
20260506042555 47 0.0 0.0 0.07 0.37 0.17 93 1006.6
20260506042044 47 0.0 0.0 0.06 0.36 0.17 93 1006.5
20260506041607 47 0.0 0.0 0.07 0.36 0.17 93 1006.5